Year,Month,Day,Hour,Minute,Value (Times are PST for temperature in C)
2017,01,14,00,00,0.40
2017,01,14,00,01,0.40
2017,01,14,00,02,0.50
2017,01,14,00,03,0.40
2017,01,14,00,04,0.50
2017,01,14,00,05,0.50
2017,01,14,00,06,0.50
2017,01,14,00,07,0.50
2017,01,14,00,08,0.40
2017,01,14,00,09,0.40
2017,01,14,00,10,0.40
2017,01,14,00,11,0.40
2017,01,14,00,12,0.40
2017,01,14,00,13,0.30
2017,01,14,00,14,0.30
2017,01,14,00,15,0.30
2017,01,14,00,16,0.30
2017,01,14,00,17,0.30
2017,01,14,00,18,0.30
2017,01,14,00,19,0.30
2017,01,14,00,20,0.30
2017,01,14,00,21,0.30
2017,01,14,00,22,0.30
2017,01,14,00,23,0.30
2017,01,14,00,24,0.30
2017,01,14,00,25,0.30
2017,01,14,00,26,0.30
2017,01,14,00,27,0.30
2017,01,14,00,28,0.30
2017,01,14,00,29,0.30
2017,01,14,00,30,0.30
2017,01,14,00,31,0.30
2017,01,14,00,32,0.30
2017,01,14,00,33,0.30
2017,01,14,00,34,0.30
2017,01,14,00,35,0.30
2017,01,14,00,36,0.30
2017,01,14,00,37,0.30
2017,01,14,00,38,0.30
2017,01,14,00,39,0.30
2017,01,14,00,40,0.30
2017,01,14,00,41,0.30
2017,01,14,00,42,0.30
2017,01,14,00,43,0.30
2017,01,14,00,44,0.30
2017,01,14,00,45,0.30
2017,01,14,00,46,0.30
2017,01,14,00,47,0.30
2017,01,14,00,48,0.30
2017,01,14,00,49,0.30
2017,01,14,00,50,0.30
2017,01,14,00,51,0.30
2017,01,14,00,52,0.30
2017,01,14,00,53,0.30
2017,01,14,00,54,0.30
2017,01,14,00,55,0.30
2017,01,14,00,56,0.30
2017,01,14,00,57,0.30
2017,01,14,00,58,0.30
2017,01,14,00,59,0.30
2017,01,14,01,00,0.30
2017,01,14,01,01,0.30
2017,01,14,01,02,0.30
2017,01,14,01,03,0.30
2017,01,14,01,04,0.30
2017,01,14,01,05,0.30
2017,01,14,01,06,0.30
2017,01,14,01,07,0.30
2017,01,14,01,08,0.30
2017,01,14,01,09,0.30
2017,01,14,01,10,0.30
2017,01,14,01,11,0.30
2017,01,14,01,12,0.30
2017,01,14,01,13,0.30
2017,01,14,01,14,0.30
2017,01,14,01,15,0.30
2017,01,14,01,16,0.30
2017,01,14,01,17,0.30
2017,01,14,01,18,0.30
2017,01,14,01,19,0.30
2017,01,14,01,20,0.30
2017,01,14,01,21,0.30
2017,01,14,01,22,0.40
2017,01,14,01,23,0.40
2017,01,14,01,24,0.40
2017,01,14,01,25,0.40
2017,01,14,01,26,0.30
2017,01,14,01,27,0.30
2017,01,14,01,28,0.30
2017,01,14,01,29,0.30
2017,01,14,01,30,0.30
2017,01,14,01,31,0.30
2017,01,14,01,32,0.30
2017,01,14,01,33,0.30
2017,01,14,01,34,0.30
2017,01,14,01,35,0.30
2017,01,14,01,36,0.30
2017,01,14,01,37,0.30
2017,01,14,01,38,0.30
2017,01,14,01,39,0.30
2017,01,14,01,40,0.30
2017,01,14,01,41,0.30
2017,01,14,01,42,0.30
2017,01,14,01,43,0.30
2017,01,14,01,44,0.30
2017,01,14,01,45,0.30
2017,01,14,01,46,0.30
2017,01,14,01,47,0.30
2017,01,14,01,48,0.30
2017,01,14,01,49,0.30
2017,01,14,01,50,0.30
2017,01,14,01,51,0.30
2017,01,14,01,52,0.30
2017,01,14,01,53,0.30
2017,01,14,01,54,0.40
2017,01,14,01,55,0.40
2017,01,14,01,56,0.40
2017,01,14,01,57,0.40
2017,01,14,01,58,0.40
2017,01,14,01,59,0.40
2017,01,14,02,00,0.40
2017,01,14,02,01,0.40
2017,01,14,02,02,0.40
2017,01,14,02,03,0.40
2017,01,14,02,04,0.40
2017,01,14,02,05,0.40
2017,01,14,02,06,0.50
2017,01,14,02,07,0.50
2017,01,14,02,08,0.50
2017,01,14,02,09,0.50
2017,01,14,02,10,0.50
2017,01,14,02,11,0.50
2017,01,14,02,12,0.50
2017,01,14,02,13,0.50
2017,01,14,02,14,0.50
2017,01,14,02,15,0.50
2017,01,14,02,16,0.40
2017,01,14,02,17,0.40
2017,01,14,02,18,0.40
2017,01,14,02,19,0.40
2017,01,14,02,20,0.40
2017,01,14,02,21,0.40
2017,01,14,02,22,0.50
2017,01,14,02,23,0.50
2017,01,14,02,24,0.50
2017,01,14,02,25,0.50
2017,01,14,02,26,0.50
2017,01,14,02,27,0.50
2017,01,14,02,28,0.50
2017,01,14,02,29,0.50
2017,01,14,02,30,0.40
2017,01,14,02,31,0.40
2017,01,14,02,32,0.40
2017,01,14,02,33,0.40
2017,01,14,02,34,0.40
2017,01,14,02,35,0.40
2017,01,14,02,36,0.30
2017,01,14,02,37,0.30
2017,01,14,02,38,0.30
2017,01,14,02,39,0.30
2017,01,14,02,40,0.30
2017,01,14,02,41,0.30
2017,01,14,02,42,0.30
2017,01,14,02,43,0.30
2017,01,14,02,44,0.30
2017,01,14,02,45,0.30
2017,01,14,02,46,0.30
2017,01,14,02,47,0.30
2017,01,14,02,48,0.30
2017,01,14,02,49,0.20
2017,01,14,02,50,0.20
2017,01,14,02,51,0.20
2017,01,14,02,52,0.20
2017,01,14,02,53,0.20
2017,01,14,02,54,0.20
2017,01,14,02,55,0.20
2017,01,14,02,56,0.20
2017,01,14,02,57,0.20
2017,01,14,02,58,0.20
2017,01,14,02,59,0.20
2017,01,14,03,00,0.20
2017,01,14,03,01,0.20
2017,01,14,03,02,0.10
2017,01,14,03,03,0.10
2017,01,14,03,04,0.10
2017,01,14,03,05,0.10
2017,01,14,03,06,0.10
2017,01,14,03,07,0.10
2017,01,14,03,08,0.10
2017,01,14,03,09,0.10
2017,01,14,03,10,0.10
2017,01,14,03,11,0.10
2017,01,14,03,12,0.10
2017,01,14,03,13,0.10
2017,01,14,03,14,0.10
2017,01,14,03,15,0.10
2017,01,14,03,16,0.10
2017,01,14,03,17,0.10
2017,01,14,03,18,0.10
2017,01,14,03,19,0.10
2017,01,14,03,20,0.10
2017,01,14,03,21,0.10
2017,01,14,03,22,0.10
2017,01,14,03,23,0.10
2017,01,14,03,24,0.10
2017,01,14,03,25,0.10
2017,01,14,03,26,0.10
2017,01,14,03,27,0.10
2017,01,14,03,28,0.10
2017,01,14,03,29,0.10
2017,01,14,03,30,0.10
2017,01,14,03,31,0.10
2017,01,14,03,32,0.10
2017,01,14,03,33,0.10
2017,01,14,03,34,0.10
2017,01,14,03,35,0.10
2017,01,14,03,36,0.10
2017,01,14,03,37,0.10
2017,01,14,03,38,0.10
2017,01,14,03,39,0.10
2017,01,14,03,40,0.10
2017,01,14,03,41,0.10
2017,01,14,03,42,0.10
2017,01,14,03,43,0.10
2017,01,14,03,44,0.10
2017,01,14,03,45,0.10
2017,01,14,03,46,0.10
2017,01,14,03,47,0.10
2017,01,14,03,48,0.10
2017,01,14,03,49,0.10
2017,01,14,03,50,0.10
2017,01,14,03,51,0.10
2017,01,14,03,52,0.10
2017,01,14,03,53,0.10
2017,01,14,03,54,0.10
2017,01,14,03,55,0.10
2017,01,14,03,56,0.10
2017,01,14,03,57,0.10
2017,01,14,03,58,0.10
2017,01,14,03,59,0.10
2017,01,14,04,00,0.10
2017,01,14,04,01,0.10
2017,01,14,04,02,0.10
2017,01,14,04,03,0.10
2017,01,14,05,04,0.00
2017,01,14,05,05,0.00
2017,01,14,05,06,0.00
2017,01,14,05,07,0.10
2017,01,14,05,08,0.10
2017,01,14,05,09,0.10
2017,01,14,05,10,0.10
2017,01,14,05,11,0.20
2017,01,14,05,12,0.20
2017,01,14,05,13,0.20
2017,01,14,05,14,0.20
2017,01,14,05,15,0.20
2017,01,14,05,16,0.20
2017,01,14,05,17,0.20
2017,01,14,05,18,0.30
2017,01,14,05,19,0.30
2017,01,14,05,20,0.30
2017,01,14,05,21,0.30
2017,01,14,05,22,0.30
2017,01,14,05,23,0.30
2017,01,14,05,24,0.30
2017,01,14,05,25,0.30
2017,01,14,05,26,0.30
2017,01,14,05,27,0.20
2017,01,14,05,28,0.20
2017,01,14,05,29,0.20
2017,01,14,05,30,0.20
2017,01,14,05,31,0.20
2017,01,14,05,32,0.10
2017,01,14,05,33,0.10
2017,01,14,05,34,0.10
2017,01,14,05,35,0.10
2017,01,14,05,36,0.10
2017,01,14,05,37,0.00
2017,01,14,05,38,0.00
2017,01,14,05,39,0.00
2017,01,14,05,40,0.00
2017,01,14,05,41,0.00
2017,01,14,05,42,0.10
2017,01,14,05,43,0.10
2017,01,14,05,44,0.00
2017,01,14,05,45,0.00
2017,01,14,05,46,0.00
2017,01,14,05,47,0.00
2017,01,14,05,48,0.00
2017,01,14,05,49,0.00
2017,01,14,05,50,0.00
2017,01,14,05,51,0.00
2017,01,14,05,52,0.00
2017,01,14,05,53,0.00
2017,01,14,05,54,0.00
2017,01,14,05,55,0.00
2017,01,14,05,56,0.00
2017,01,14,05,57,0.00
2017,01,14,05,58,0.00
2017,01,14,05,59,0.00
2017,01,14,06,00,0.00
2017,01,14,06,01,0.00
2017,01,14,06,02,0.00
2017,01,14,06,03,0.00
2017,01,14,08,53,0.10
2017,01,14,08,54,0.10
2017,01,14,08,55,0.10
2017,01,14,08,56,0.10
2017,01,14,08,57,0.10
2017,01,14,08,58,0.10
2017,01,14,08,59,0.10
2017,01,14,09,00,0.10
2017,01,14,09,01,0.10
2017,01,14,09,02,0.10
2017,01,14,09,03,0.10
2017,01,14,09,04,0.20
2017,01,14,09,05,0.20
2017,01,14,09,06,0.20
2017,01,14,09,07,0.20
2017,01,14,09,08,0.20
2017,01,14,09,09,0.20
2017,01,14,09,10,0.30
2017,01,14,09,11,0.30
2017,01,14,09,12,0.30
2017,01,14,09,13,0.30
2017,01,14,09,14,0.40
2017,01,14,09,15,0.40
2017,01,14,09,16,0.40
2017,01,14,09,17,0.50
2017,01,14,09,18,0.50
2017,01,14,09,19,0.50
2017,01,14,09,20,0.60
2017,01,14,09,21,0.60
2017,01,14,09,22,0.60
2017,01,14,09,23,0.70
2017,01,14,09,24,0.70
2017,01,14,09,25,0.70
2017,01,14,09,26,0.80
2017,01,14,09,27,0.80
2017,01,14,09,28,0.80
2017,01,14,09,29,0.80
2017,01,14,09,30,0.90
2017,01,14,09,31,0.90
2017,01,14,09,32,0.90
2017,01,14,09,33,0.90
2017,01,14,09,34,1.00
2017,01,14,09,35,1.00
2017,01,14,09,36,1.00
2017,01,14,09,37,1.00
2017,01,14,09,38,1.10
2017,01,14,09,39,1.10
2017,01,14,09,40,1.10
2017,01,14,09,41,1.10
2017,01,14,09,42,1.20
2017,01,14,09,43,1.20
2017,01,14,09,44,1.20
2017,01,14,09,45,1.20
2017,01,14,09,46,1.30
2017,01,14,09,47,1.30
2017,01,14,09,48,1.30
2017,01,14,09,49,1.30
2017,01,14,09,50,1.30
2017,01,14,09,51,1.30
2017,01,14,09,52,1.40
2017,01,14,09,53,1.40
2017,01,14,09,54,1.40
2017,01,14,09,55,1.40
2017,01,14,09,56,1.40
2017,01,14,09,57,1.40
2017,01,14,09,58,1.50
2017,01,14,09,59,1.50
2017,01,14,10,00,1.50
2017,01,14,10,01,1.50
2017,01,14,10,02,1.50
2017,01,14,10,03,1.60
2017,01,14,10,04,1.60
2017,01,14,10,05,1.60
2017,01,14,10,06,1.60
2017,01,14,10,07,1.60
2017,01,14,10,08,1.70
2017,01,14,10,09,1.70
2017,01,14,10,10,1.70
2017,01,14,10,11,1.70
2017,01,14,10,12,1.70
2017,01,14,10,13,1.70
2017,01,14,10,14,1.70
2017,01,14,10,15,1.70
2017,01,14,10,16,1.80
2017,01,14,10,17,1.80
2017,01,14,10,18,1.80
2017,01,14,10,19,1.80
2017,01,14,10,20,1.80
2017,01,14,10,21,1.90
2017,01,14,10,22,1.90
2017,01,14,10,23,1.90
2017,01,14,10,24,1.90
2017,01,14,10,25,2.00
2017,01,14,10,26,2.00
2017,01,14,10,27,2.00
2017,01,14,10,28,2.00
2017,01,14,10,29,2.00
2017,01,14,10,30,2.10
2017,01,14,10,31,2.10
2017,01,14,10,32,2.10
2017,01,14,10,33,2.10
2017,01,14,10,34,2.10
2017,01,14,10,35,2.10
2017,01,14,10,36,2.20
2017,01,14,10,37,2.20
2017,01,14,10,38,2.20
2017,01,14,10,39,2.20
2017,01,14,10,40,2.20
2017,01,14,10,41,2.20
2017,01,14,10,42,2.20
2017,01,14,10,43,2.20
2017,01,14,10,44,2.20
2017,01,14,10,45,2.30
2017,01,14,10,46,2.30
2017,01,14,10,47,2.30
2017,01,14,10,48,2.30
2017,01,14,10,49,2.30
2017,01,14,10,50,2.40
2017,01,14,10,51,2.40
2017,01,14,10,52,2.40
2017,01,14,10,53,2.40
2017,01,14,10,54,2.40
2017,01,14,10,55,2.40
2017,01,14,10,56,2.40
2017,01,14,10,57,2.40
2017,01,14,10,58,2.40
2017,01,14,10,59,2.40
2017,01,14,11,00,2.50
2017,01,14,11,01,2.50
2017,01,14,11,02,2.50
2017,01,14,11,03,2.60
2017,01,14,11,04,2.60
2017,01,14,11,05,2.60
2017,01,14,11,06,2.60
2017,01,14,11,07,2.60
2017,01,14,11,08,2.70
2017,01,14,11,09,2.70
2017,01,14,11,10,2.70
2017,01,14,11,11,2.70
2017,01,14,11,12,2.70
2017,01,14,11,13,2.70
2017,01,14,11,14,2.70
2017,01,14,11,15,2.70
2017,01,14,11,16,2.80
2017,01,14,11,17,2.80
2017,01,14,11,18,2.80
2017,01,14,11,19,2.80
2017,01,14,11,20,2.80
2017,01,14,11,21,2.80
2017,01,14,11,22,2.80
2017,01,14,11,23,2.80
2017,01,14,11,24,2.80
2017,01,14,11,25,2.80
2017,01,14,11,26,2.80
2017,01,14,11,27,2.80
2017,01,14,11,28,2.80
2017,01,14,11,29,2.90
2017,01,14,11,30,2.90
2017,01,14,11,31,2.90
2017,01,14,11,32,2.90
2017,01,14,11,33,2.90
2017,01,14,11,34,2.90
2017,01,14,11,35,2.90
2017,01,14,11,36,2.90
2017,01,14,11,37,2.90
2017,01,14,11,38,2.90
2017,01,14,11,39,2.90
2017,01,14,11,40,2.90
2017,01,14,11,41,2.90
2017,01,14,11,42,2.90
2017,01,14,11,43,2.90
2017,01,14,11,44,2.90
2017,01,14,11,45,3.00
2017,01,14,11,46,3.00
2017,01,14,11,47,3.00
2017,01,14,11,48,3.00
2017,01,14,11,49,3.00
2017,01,14,11,50,3.00
2017,01,14,11,51,3.00
2017,01,14,11,52,3.00
2017,01,14,11,53,3.00
2017,01,14,11,54,3.00
2017,01,14,11,55,3.00
2017,01,14,11,56,3.10
2017,01,14,11,57,3.10
2017,01,14,11,58,3.10
2017,01,14,11,59,3.10
2017,01,14,12,00,3.10
2017,01,14,12,01,3.10
2017,01,14,12,02,3.10
2017,01,14,12,03,3.10
2017,01,14,12,04,3.10
2017,01,14,12,05,3.20
2017,01,14,12,06,3.20
2017,01,14,12,07,3.20
2017,01,14,12,08,3.20
2017,01,14,12,09,3.30
2017,01,14,12,10,3.30
2017,01,14,12,11,3.30
2017,01,14,12,12,3.20
2017,01,14,12,13,3.30
2017,01,14,12,14,3.30
2017,01,14,12,15,3.30
2017,01,14,12,16,3.30
2017,01,14,12,17,3.30
2017,01,14,12,18,3.30
2017,01,14,12,19,3.40
2017,01,14,12,20,3.40
2017,01,14,12,21,3.40
2017,01,14,12,22,3.40
2017,01,14,12,23,3.40
2017,01,14,12,24,3.40
2017,01,14,12,25,3.40
2017,01,14,12,26,3.40
2017,01,14,12,27,3.40
2017,01,14,12,28,3.40
2017,01,14,12,29,3.40
2017,01,14,12,30,3.40
2017,01,14,12,31,3.40
2017,01,14,12,32,3.50
2017,01,14,12,33,3.50
2017,01,14,12,34,3.60
2017,01,14,12,35,3.60
2017,01,14,12,36,3.60
2017,01,14,12,37,3.50
2017,01,14,12,38,3.50
2017,01,14,12,39,3.50
2017,01,14,12,40,3.50
2017,01,14,12,41,3.60
2017,01,14,12,42,3.50
2017,01,14,12,43,3.50
2017,01,14,12,44,3.50
2017,01,14,12,45,3.50
2017,01,14,12,46,3.50
2017,01,14,12,47,3.50
2017,01,14,12,48,3.50
2017,01,14,12,49,3.50
2017,01,14,12,50,3.50
2017,01,14,12,51,3.50
2017,01,14,12,52,3.60
2017,01,14,12,53,3.60
2017,01,14,12,54,3.60
2017,01,14,12,55,3.60
2017,01,14,12,56,3.60
2017,01,14,12,57,3.70
2017,01,14,12,58,3.70
2017,01,14,12,59,3.70
2017,01,14,13,00,3.70
2017,01,14,13,01,3.70
2017,01,14,13,02,3.70
2017,01,14,13,03,3.70
2017,01,14,13,04,3.70
2017,01,14,13,05,3.70
2017,01,14,13,06,3.70
2017,01,14,13,07,3.70
2017,01,14,13,08,3.70
2017,01,14,13,09,3.60
2017,01,14,13,10,3.60
2017,01,14,13,11,3.60
2017,01,14,13,12,3.60
2017,01,14,13,13,3.60
2017,01,14,13,14,3.60
2017,01,14,13,15,3.60
2017,01,14,13,16,3.60
2017,01,14,13,17,3.50
2017,01,14,13,18,3.50
2017,01,14,13,19,3.50
2017,01,14,13,20,3.60
2017,01,14,13,21,3.60
2017,01,14,13,22,3.60
2017,01,14,13,23,3.70
2017,01,14,13,24,3.70
2017,01,14,13,25,3.70
2017,01,14,13,26,3.70
2017,01,14,13,27,3.70
2017,01,14,13,28,3.60
2017,01,14,13,29,3.70
2017,01,14,13,30,3.70
2017,01,14,13,31,3.70
2017,01,14,13,32,3.80
2017,01,14,13,33,3.80
2017,01,14,13,34,3.80
2017,01,14,13,35,3.90
2017,01,14,13,36,3.90
2017,01,14,13,37,3.90
2017,01,14,13,38,3.90
2017,01,14,13,39,3.90
2017,01,14,13,40,4.00
2017,01,14,13,41,4.00
2017,01,14,13,42,4.00
2017,01,14,13,43,4.00
2017,01,14,13,44,4.00
2017,01,14,13,45,4.00
2017,01,14,13,46,4.10
2017,01,14,13,47,4.10
2017,01,14,13,48,4.10
2017,01,14,13,49,4.10
2017,01,14,13,50,4.10
2017,01,14,13,51,4.00
2017,01,14,13,52,4.00
2017,01,14,13,53,4.00
2017,01,14,13,54,4.00
2017,01,14,13,55,4.00
2017,01,14,13,56,4.00
2017,01,14,13,57,4.00
2017,01,14,13,58,4.00
2017,01,14,13,59,4.00
2017,01,14,14,00,4.00
2017,01,14,14,01,4.00
2017,01,14,14,02,4.00
2017,01,14,14,03,4.00
2017,01,14,14,04,4.00
2017,01,14,14,05,4.00
2017,01,14,14,06,4.00
2017,01,14,14,07,4.00
2017,01,14,14,08,4.00
2017,01,14,14,09,4.00
2017,01,14,14,10,4.00
2017,01,14,14,11,4.00
2017,01,14,14,12,4.00
2017,01,14,14,13,4.00
2017,01,14,14,14,4.00
2017,01,14,14,15,4.00
2017,01,14,14,16,4.00
2017,01,14,14,17,4.00
2017,01,14,14,18,4.00
2017,01,14,14,19,4.10
2017,01,14,14,20,4.00
2017,01,14,14,21,4.10
2017,01,14,14,22,4.10
2017,01,14,14,23,4.10
2017,01,14,14,24,4.10
2017,01,14,14,25,4.10
2017,01,14,14,26,4.10
2017,01,14,14,27,4.10
2017,01,14,14,28,4.10
2017,01,14,14,29,4.10
2017,01,14,14,30,4.20
2017,01,14,14,31,4.20
2017,01,14,14,32,4.20
2017,01,14,14,33,4.20
2017,01,14,14,34,4.20
2017,01,14,14,35,4.20
2017,01,14,14,36,4.20
2017,01,14,14,37,4.20
2017,01,14,14,38,4.20
2017,01,14,14,39,4.20
2017,01,14,14,40,4.20
2017,01,14,14,41,4.20
2017,01,14,14,42,4.20
2017,01,14,14,43,4.20
2017,01,14,14,44,4.10
2017,01,14,14,45,4.10
2017,01,14,14,46,4.00
2017,01,14,14,47,4.00
2017,01,14,14,48,3.90
2017,01,14,14,49,3.90
2017,01,14,14,50,3.90
2017,01,14,14,51,3.90
2017,01,14,14,52,3.90
2017,01,14,14,53,3.90
2017,01,14,14,54,3.90
2017,01,14,14,55,3.90
2017,01,14,14,56,3.90
2017,01,14,14,57,3.90
2017,01,14,14,58,3.90
2017,01,14,14,59,3.90
2017,01,14,15,00,3.90
2017,01,14,15,01,3.90
2017,01,14,15,02,3.80
2017,01,14,15,03,3.80
2017,01,14,15,04,3.80
2017,01,14,15,05,3.80
2017,01,14,15,06,3.80
2017,01,14,15,07,3.90
2017,01,14,15,08,3.90
2017,01,14,15,09,3.80
2017,01,14,15,10,3.80
2017,01,14,15,11,3.80
2017,01,14,15,12,3.80
2017,01,14,15,13,3.80
2017,01,14,15,14,3.80
2017,01,14,15,15,3.80
2017,01,14,15,16,3.80
2017,01,14,15,17,3.90
2017,01,14,15,18,3.90
2017,01,14,15,19,3.90
2017,01,14,15,20,3.90
2017,01,14,15,21,3.90
2017,01,14,15,22,3.90
2017,01,14,15,23,3.90
2017,01,14,15,24,3.90
2017,01,14,15,25,3.90
2017,01,14,15,26,3.90
2017,01,14,15,27,3.90
2017,01,14,15,28,3.90
2017,01,14,15,29,3.90
2017,01,14,15,30,3.90
2017,01,14,15,31,3.90
2017,01,14,15,32,3.90
2017,01,14,15,33,3.90
2017,01,14,15,34,3.90
2017,01,14,15,35,3.90
2017,01,14,15,36,3.90
2017,01,14,15,37,3.90
2017,01,14,15,38,3.90
2017,01,14,15,39,3.90
2017,01,14,15,40,3.90
2017,01,14,15,41,3.80
2017,01,14,15,42,3.80
2017,01,14,15,43,3.80
2017,01,14,15,44,3.80
2017,01,14,15,45,3.80
2017,01,14,15,46,3.80
2017,01,14,15,47,3.80
2017,01,14,15,48,3.80
2017,01,14,15,49,3.80
2017,01,14,15,50,3.80
2017,01,14,15,51,3.80
2017,01,14,15,52,3.80
2017,01,14,15,53,3.80
2017,01,14,15,54,3.80
2017,01,14,15,55,3.80
2017,01,14,15,56,3.80
2017,01,14,15,57,3.80
2017,01,14,15,58,3.80
2017,01,14,15,59,3.80
2017,01,14,16,00,3.80
2017,01,14,16,01,3.80
2017,01,14,16,02,3.80
2017,01,14,16,03,3.80
2017,01,14,16,04,3.80
2017,01,14,16,05,3.80
2017,01,14,16,06,3.70
2017,01,14,16,07,3.70
2017,01,14,16,08,3.70
2017,01,14,16,09,3.70
2017,01,14,17,04,2.70
2017,01,14,17,05,2.70
2017,01,14,17,06,2.70
2017,01,14,17,07,2.70
2017,01,14,17,08,2.60
2017,01,14,17,09,2.60
2017,01,14,17,10,2.60
2017,01,14,17,11,2.50
2017,01,14,17,12,2.50
2017,01,14,17,13,2.50
2017,01,14,17,14,2.40
2017,01,14,17,15,2.40
2017,01,14,17,16,2.40
2017,01,14,17,17,2.40
2017,01,14,17,18,2.40
2017,01,14,17,19,2.40
2017,01,14,17,20,2.40
2017,01,14,17,21,2.40
2017,01,14,17,22,2.40
2017,01,14,17,23,2.40
2017,01,14,17,24,2.40
2017,01,14,17,25,2.40
2017,01,14,17,26,2.40
2017,01,14,17,27,2.40
2017,01,14,17,28,2.50
2017,01,14,17,29,2.50
2017,01,14,17,30,2.50
2017,01,14,17,31,2.50
2017,01,14,17,32,2.50
2017,01,14,17,33,2.50
2017,01,14,17,34,2.50
2017,01,14,17,35,2.50
2017,01,14,17,36,2.50
2017,01,14,17,37,2.50
2017,01,14,17,38,2.60
2017,01,14,17,39,2.60
2017,01,14,17,40,2.60
2017,01,14,17,41,2.60
2017,01,14,17,42,2.60
2017,01,14,17,43,2.60
2017,01,14,17,44,2.60
2017,01,14,17,45,2.60
2017,01,14,17,46,2.60
2017,01,14,17,47,2.60
2017,01,14,17,48,2.60
2017,01,14,17,49,2.60
2017,01,14,17,50,2.60
2017,01,14,17,51,2.60
2017,01,14,17,52,2.60
2017,01,14,17,53,2.60
2017,01,14,17,54,2.60
2017,01,14,17,55,2.60
2017,01,14,17,56,2.60
2017,01,14,17,57,2.60
2017,01,14,17,58,2.60
2017,01,14,17,59,2.60
2017,01,14,18,00,2.60
2017,01,14,18,01,2.60
2017,01,14,18,02,2.60
2017,01,14,18,03,2.60
2017,01,14,18,04,2.60
2017,01,14,18,05,2.60
2017,01,14,18,06,2.60
2017,01,14,18,07,2.60
2017,01,14,18,08,2.50
2017,01,14,18,09,2.50
2017,01,14,18,10,2.40
2017,01,14,18,11,2.40
2017,01,14,18,12,2.30
2017,01,14,18,13,2.30
2017,01,14,18,14,2.30
2017,01,14,18,15,2.20
2017,01,14,18,16,2.20
2017,01,14,18,17,2.20
2017,01,14,18,18,2.20
2017,01,14,18,19,2.20
2017,01,14,18,20,2.20
2017,01,14,18,21,2.20
2017,01,14,18,22,2.20
2017,01,14,18,23,2.20
2017,01,14,18,24,2.20
2017,01,14,18,25,2.20
2017,01,14,18,26,2.10
2017,01,14,18,27,2.00
2017,01,14,18,28,1.90
2017,01,14,18,29,1.80
2017,01,14,18,30,1.80
2017,01,14,18,31,1.70
2017,01,14,18,32,1.60
2017,01,14,18,33,1.60
2017,01,14,18,34,1.50
2017,01,14,18,35,1.50
2017,01,14,18,36,1.50
2017,01,14,18,37,1.40
2017,01,14,18,38,1.40
2017,01,14,18,39,1.40
2017,01,14,18,40,1.40
2017,01,14,18,41,1.40
2017,01,14,18,42,1.40
2017,01,14,18,43,1.40
2017,01,14,18,44,1.40
2017,01,14,18,45,1.40
2017,01,14,18,46,1.40
2017,01,14,18,47,1.40
2017,01,14,18,48,1.50
2017,01,14,18,49,1.50
2017,01,14,18,50,1.60
2017,01,14,18,51,1.60
2017,01,14,18,52,1.60
2017,01,14,18,53,1.70
2017,01,14,18,54,1.70
2017,01,14,18,55,1.70
2017,01,14,18,56,1.70
2017,01,14,18,57,1.70
2017,01,14,18,58,1.70
2017,01,14,18,59,1.70
2017,01,14,19,00,1.70
2017,01,14,19,01,1.70
2017,01,14,19,02,1.70
2017,01,14,19,03,1.70
2017,01,14,19,04,1.70
2017,01,14,19,05,1.70
2017,01,14,19,06,1.70
2017,01,14,19,07,1.70
2017,01,14,19,08,1.80
2017,01,14,19,09,1.80
2017,01,14,19,10,1.80
2017,01,14,19,11,1.80
2017,01,14,19,12,1.90
2017,01,14,19,13,1.90
2017,01,14,19,14,2.00
2017,01,14,19,15,2.00
2017,01,14,19,16,2.00
2017,01,14,19,17,2.10
2017,01,14,19,18,2.10
2017,01,14,19,19,2.10
2017,01,14,19,20,2.10
2017,01,14,19,21,2.10
2017,01,14,19,22,2.10
2017,01,14,19,23,2.20
2017,01,14,19,24,2.20
2017,01,14,19,25,2.20
2017,01,14,19,26,2.20
2017,01,14,19,27,2.30
2017,01,14,19,28,2.30
2017,01,14,19,29,2.30
2017,01,14,19,30,2.30
2017,01,14,19,31,2.30
2017,01,14,19,32,2.30
2017,01,14,19,33,2.30
2017,01,14,19,34,2.30
2017,01,14,19,35,2.20
2017,01,14,19,36,2.20
2017,01,14,19,37,2.20
2017,01,14,19,38,2.20
2017,01,14,19,39,2.20
2017,01,14,19,40,2.20
2017,01,14,19,41,2.20
2017,01,14,19,42,2.20
2017,01,14,19,43,2.20
2017,01,14,19,44,2.20
2017,01,14,19,45,2.10
2017,01,14,19,46,2.20
2017,01,14,19,47,2.20
2017,01,14,19,48,2.20
2017,01,14,19,49,2.20
2017,01,14,19,50,2.20
2017,01,14,19,51,2.20
2017,01,14,19,52,2.20
2017,01,14,19,53,2.20
2017,01,14,19,54,2.20
2017,01,14,19,55,2.20
2017,01,14,19,56,2.20
2017,01,14,19,57,2.20
2017,01,14,19,58,2.20
2017,01,14,19,59,2.10
2017,01,14,20,00,2.10
2017,01,14,20,01,2.10
2017,01,14,20,02,2.10
2017,01,14,20,03,2.10
2017,01,14,20,04,2.10
2017,01,14,20,05,2.00
2017,01,14,20,06,2.00
2017,01,14,20,07,2.00
2017,01,14,20,08,2.00
2017,01,14,20,09,2.00
2017,01,14,20,10,2.00
2017,01,14,20,11,1.90
2017,01,14,20,12,1.90
2017,01,14,20,13,2.00
2017,01,14,20,14,1.90
2017,01,14,20,15,2.00
2017,01,14,20,16,2.00
2017,01,14,20,17,2.00
2017,01,14,20,18,2.00
2017,01,14,20,19,2.00
2017,01,14,20,20,2.00
2017,01,14,20,21,2.00
2017,01,14,20,22,2.10
2017,01,14,20,23,2.10
2017,01,14,20,24,2.10
2017,01,14,20,25,2.10
2017,01,14,20,26,2.10
2017,01,14,20,27,2.10
2017,01,14,20,28,2.10
2017,01,14,20,29,2.10
2017,01,14,20,30,2.10
2017,01,14,20,31,2.10
2017,01,14,20,32,2.10
2017,01,14,20,33,2.10
2017,01,14,20,34,2.10
2017,01,14,20,35,2.10
2017,01,14,20,36,2.10
2017,01,14,20,37,2.20
2017,01,14,20,38,2.20
2017,01,14,20,39,2.10
2017,01,14,20,40,2.10
2017,01,14,20,41,2.10
2017,01,14,20,42,2.10
2017,01,14,20,43,2.10
2017,01,14,20,44,2.10
2017,01,14,20,45,2.10
2017,01,14,20,46,2.10
2017,01,14,20,47,2.10
2017,01,14,20,48,2.10
2017,01,14,20,49,2.10
2017,01,14,20,50,2.10
2017,01,14,20,51,2.10
2017,01,14,20,52,2.10
2017,01,14,20,53,2.10
2017,01,14,20,54,2.10
2017,01,14,20,55,2.10
2017,01,14,20,56,2.00
2017,01,14,20,57,2.00
2017,01,14,20,58,2.00
2017,01,14,20,59,2.00
2017,01,14,21,00,2.00
2017,01,14,21,01,2.00
2017,01,14,21,02,1.90
2017,01,14,21,03,1.90
2017,01,14,21,04,1.90
2017,01,14,21,05,1.90
2017,01,14,21,06,1.90
2017,01,14,21,07,1.90
2017,01,14,21,08,1.90
2017,01,14,21,09,1.90
2017,01,14,21,10,1.90
2017,01,14,21,11,1.90
2017,01,14,21,12,1.90
2017,01,14,21,13,1.90
2017,01,14,21,14,1.90
2017,01,14,21,15,1.80
2017,01,14,21,16,1.80
2017,01,14,21,17,1.80
2017,01,14,21,18,1.80
2017,01,14,21,19,1.80
2017,01,14,21,20,1.80
2017,01,14,21,21,1.80
2017,01,14,21,22,1.80
2017,01,14,21,23,1.80
2017,01,14,21,24,1.80
2017,01,14,21,25,1.70
2017,01,14,21,26,1.70
2017,01,14,21,27,1.70
2017,01,14,21,28,1.70
2017,01,14,21,29,1.70
2017,01,14,21,30,1.70
2017,01,14,21,31,1.70
2017,01,14,21,32,1.70
2017,01,14,21,33,1.70
2017,01,14,21,34,1.70
2017,01,14,21,35,1.70
2017,01,14,21,36,1.70
2017,01,14,21,37,1.70
2017,01,14,21,38,1.60
2017,01,14,21,39,1.60
2017,01,14,21,40,1.60
2017,01,14,21,41,1.60
2017,01,14,21,42,1.60
2017,01,14,21,43,1.60
2017,01,14,21,44,1.60
2017,01,14,21,45,1.50
2017,01,14,21,46,1.50
2017,01,14,21,47,1.50
2017,01,14,21,48,1.50
2017,01,14,21,49,1.50
2017,01,14,21,50,1.50
2017,01,14,21,51,1.50
2017,01,14,21,52,1.50
2017,01,14,21,53,1.50
2017,01,14,21,54,1.50
2017,01,14,21,55,1.50
2017,01,14,21,56,1.40
2017,01,14,21,57,1.40
2017,01,14,21,58,1.40
2017,01,14,21,59,1.40
2017,01,14,22,00,1.40
2017,01,14,22,01,1.40
2017,01,14,22,02,1.40
2017,01,14,22,03,1.40
2017,01,14,22,04,1.40
2017,01,14,22,05,1.40
2017,01,14,22,06,1.40
2017,01,14,22,07,1.40
2017,01,14,22,08,1.40
2017,01,14,22,09,1.40
2017,01,14,22,10,1.40
2017,01,14,22,11,1.40
2017,01,14,22,12,1.40
2017,01,14,22,13,1.30
2017,01,14,22,14,1.30
2017,01,14,22,15,1.30
2017,01,14,22,16,1.30
2017,01,14,22,17,1.30
2017,01,14,22,18,1.30
2017,01,14,22,19,1.20
2017,01,14,22,20,1.20
2017,01,14,22,21,1.20
2017,01,14,22,22,1.20
2017,01,14,22,23,1.20
2017,01,14,22,24,1.10
2017,01,14,22,25,1.10
2017,01,14,22,26,1.10
2017,01,14,22,27,1.10
2017,01,14,22,28,1.10
2017,01,14,22,29,1.10
2017,01,14,22,30,1.00
2017,01,14,22,31,1.00
2017,01,14,22,32,1.00
2017,01,14,22,33,1.00
2017,01,14,22,34,1.00
2017,01,14,22,35,1.00
2017,01,14,22,36,0.90
2017,01,14,22,37,0.90
2017,01,14,22,38,0.90
2017,01,14,22,39,0.90
2017,01,14,22,40,0.90
2017,01,14,22,41,0.90
2017,01,14,22,42,0.90
2017,01,14,22,43,0.90
2017,01,14,22,44,0.90
2017,01,14,22,45,0.90
2017,01,14,22,46,0.90
2017,01,14,22,47,0.90
2017,01,14,22,48,1.00
2017,01,14,22,49,1.00